User: anonymous   Login
Location: Clinton NY
(43.0598°N, 75.3602°W)
Time: 11:06:14
(UTC-04:00)
Language:

Iridium 11 - Orbit

View from above orbital plane
View from above orbital plane
View from above satellite
View from above satellite

Ground track
Ground track

The orbit data is extracted from the following two-line orbital elements,

1 25578U 98074B   17112.94364058 +.00000086 +00000-0 +23629-4 0  9996
2 25578 086.3921 278.6697 0002260 094.0019 016.0929 14.34214243969476
Epoch (UTC): 22 April 2017 22:38:50
Eccentricity: 0.0002260
inclination: 86.3921°
perigee height: 776 km
apogee height: 779 km
right ascension of ascending node: 278.6697°
argument of perigee: 94.0019°
revolutions per day: 14.34214243
mean anomaly at epoch: 16.0929°
orbit number at epoch: 96947

The dashed part of the orbit path shows where the satellite is in the earth's shadow,  

DLR